IRIDIUM 15 [B]

Last updated on Wed Sep 26 2018 02:52:29 GMT+0000 (Coordinated Universal Time)

1 24869U 97034A 18267.87115099 .00000156 00000-0 44421-4 0 9997 2 24869 86.4246 187.6677 0001839 81.9440 278.1967 14.38608726110478

Satellite not in orbit

IRIDIUM 15 [B]